Other Public Products
Issued by NWS Charleston, SC

Current Version | Previous Version | Graphics & Text | Print | Product List | Glossary On
Versions: 1 2 3 4 5 6 7 8 9 10 11 12 13 14 15 16 17 18 19 20 21 22 23 24 25 26 27 28 29 30 31 32 33 34 35 36 37 38 39 40 41 42 43 44 45 46 47 48 49 50
297
FPUS82 KCHS 161212
OPUCHS

TEST...KCHS/KSAV Gateway Observations...TEST
National Weather Service Charleston SC
800 AM EDT WED AUG 16 2017

NOTE: "fair" indicates few or no clouds below 12,000 feet with no
significant weather and/or obstructions to visibility.

SCZ050-WAZ558-NCZ071-TXZ119-213-PAZ071-DCZ001-FLZ074-172-MI076-
NYZ176-178-MAZ016-IL014-TNZ027-NJZ106-GAZ044-MD014-161300-

...Gateway Observations for Charleston International...

CITY           SKY/WX    TMP DP  RH WIND       PRES   REMARKS
Chas Airport   MOSUNNY   80  75  84 W8        30.01R
6HR MIN TEMP:  78; 6HR MAX TEMP:  81;

Seattle        CLEAR     60  48  64 NE5       30.07S
6HR MIN TEMP:  60; 6HR MAX TEMP:  67;

Charlotte      MOSUNNY   76  75  97 NW3       30.05R
6HR MIN TEMP:  73; 6HR MAX TEMP:  76;

Dallas DFW     CLOUDY    81  74  79 S10       29.88R
6HR MIN TEMP:  81; 6HR MAX TEMP:  87;

Dallas Love    CLOUDY    81  73  76 S10       29.90R
6HR MIN TEMP:  81; 6HR MAX TEMP:  87; 6HR PCP: TRACE;

Philladelphia  MOSUNNY   73  69  87 NW6       29.98R FOG
6HR MIN TEMP:  69; 6HR MAX TEMP:  73;

Wash National  PTSUNNY   75  74  96 CALM      30.00R FOG
6HR MIN TEMP:  72; 6HR MAX TEMP:  75;

Baltimore      FOG       70  70 100 W3        29.99R VSB 1/4
6HR MIN TEMP:  68; 6HR MAX TEMP:  71;

Miami          MOSUNNY   84  76  76 CALM      30.07R HX  93
6HR MIN TEMP:  81; 6HR MAX TEMP:  85;

Detroit        PTSUNNY   68  59  73 N5        30.08R
6HR MIN TEMP:  64; 6HR MAX TEMP:  69;

Newark         MOSUNNY   73  68  84 NW5       29.96R
6HR MIN TEMP:  70; 6HR MAX TEMP:  73;

Laguardia      MOSUNNY   73  68  84 NW8       29.95R
6HR MIN TEMP:  71; 6HR MAX TEMP:  73;

J F K          MOSUNNY   74  71  91 NW8       29.96S
6HR MIN TEMP:  70; 6HR MAX TEMP:  74;

Boston Logan   MOSUNNY   73  66  78 NW7       29.92R
6HR MIN TEMP:  66; 6HR MAX TEMP:  73;

Ft. Lauderdale MOSUNNY   84  78  82 CALM      30.06S HX  95
6HR MIN TEMP:  81; 6HR MAX TEMP:  84;

Chicago O`Hare PTCLDY    69  64  84 NE6       30.01S
6HR MIN TEMP:  67; 6HR MAX TEMP:  69;

Chicago Midway PTCLDY    72  67  84 E7        30.01R
6HR MIN TEMP:  70; 6HR MAX TEMP:  72;

Houston Bush   PTCLDY    83  77  82 S5        29.96R HX  92
6HR MIN TEMP:  82; 6HR MAX TEMP:  84; 6HR PCP: TRACE;

Houston Hobby  PTCLDY    83  77  82 S6        29.95R HX  92
6HR MIN TEMP:  82; 6HR MAX TEMP:  84;

Nashville      HVY RAIN  74  72  93 S10       30.05R FOG
6HR MIN TEMP:  73; 6HR MAX TEMP:  77; 6HR PCP:  0.23;

Atlanta        PTSUNNY   74  71  91 W7        30.09R
6HR MIN TEMP:  74; 6HR MAX TEMP:  76;


$$

GAZ044-118-TXZ119-213-NCZ071-DCZ001-MDZ014-506-PAZ021-071-NJZ106-
NYZ176-178-MAZ106-OHZ011-021-055-MIZ076-KYZ091-ILZ014-INZ047-
MNZ060-ONZ431-161300-

...Gateway Observations for Savannah International...

CITY           SKY/WX    TMP DP  RH WIND       PRES   REMARKS
Savannah Arpt  MOSUNNY   79  76  90 W9        30.04R
6HR MIN TEMP:  77; 6HR MAX TEMP:  81;

Atlanta        PTSUNNY   74  71  91 W7        30.09R
6HR MIN TEMP:  74; 6HR MAX TEMP:  76;

Charlotte      MOSUNNY   76  75  97 NW3       30.05R
6HR MIN TEMP:  73; 6HR MAX TEMP:  76;

Dallas DFW     CLOUDY    81  74  79 S10       29.88R
6HR MIN TEMP:  81; 6HR MAX TEMP:  87;

Houston Bush   PTCLDY    83  77  82 S5        29.96R HX  92
6HR MIN TEMP:  82; 6HR MAX TEMP:  84; 6HR PCP: TRACE;

Wash National  PTSUNNY   75  74  96 CALM      30.00R FOG
6HR MIN TEMP:  72; 6HR MAX TEMP:  75;

Wash Dulles    MOSUNNY   71  71 100 CALM      30.01R FOG
6HR MIN TEMP:  65; 6HR MAX TEMP:  70;

Baltimore      FOG       70  70 100 W3        29.99R VSB 1/4
6HR MIN TEMP:  68; 6HR MAX TEMP:  71;

Philadelphia   MOSUNNY   73  69  87 NW6       29.98R FOG
6HR MIN TEMP:  69; 6HR MAX TEMP:  73;

Newark         MOSUNNY   73  68  84 NW5       29.96R
6HR MIN TEMP:  70; 6HR MAX TEMP:  73;

Laguardia      MOSUNNY   73  68  84 NW8       29.95R
6HR MIN TEMP:  71; 6HR MAX TEMP:  73;

J F K          MOSUNNY   74  71  91 NW8       29.96S
6HR MIN TEMP:  70; 6HR MAX TEMP:  74;

Boston         MOSUNNY   73  66  78 NW7       29.92R
6HR MIN TEMP:  66; 6HR MAX TEMP:  73;

Pittsburg      PTSUNNY   69  65  86 N5        30.07
6HR MIN TEMP:  68; 6HR MAX TEMP:  72;

Akron          MOSUNNY   67  62  84 E5        30.09R HAZE
6HR MIN TEMP:  61; 6HR MAX TEMP:  67;

Cleveland      MOSUNNY   67  63  87 CALM      30.10R
6HR MIN TEMP:  62; 6HR MAX TEMP:  70;

Cincinnati     MOSUNNY   71  69  93 CALM      30.04R
6HR MIN TEMP:  67; 6HR MAX TEMP:  73;

Columbus       MOSUNNY   68  68  99 CALM      30.05R
Detroit        PTSUNNY   68  59  73 N5        30.08R
6HR MIN TEMP:  64; 6HR MAX TEMP:  69;

Chicago O`Hare PTCLDY    69  64  84 NE6       30.01S
6HR MIN TEMP:  67; 6HR MAX TEMP:  69;

Minneapolis    RAIN      66  63  90 SE9       29.92S FOG
6HR MIN TEMP:  64; 6HR MAX TEMP:  67; 6HR PCP:  0.46;

Indianapolis   MOSUNNY   71  68  90 CALM      30.01R
6HR MIN TEMP:  69; 6HR MAX TEMP:  74;

Toronto Canada PTSUNNY   64  59  82 N6        30.07R

$$




USA.gov is the U.S. government's official web portal to all federal, state and local government web resources and services.